SCP
0 0 0 0 0 0 0 0 0 0 0 0 0 0 0 0 0 0 0 0 0 0
0 0 0 0 0 0 0 0 0 0 0 0 0 0 0 0 0 0 0 0 0 0
0 0 0 0 0 0 0 0 0 0 0 0 0 0 0 0 0 0 0 0 0 0
0 0 0 0 0 0 0 0 0 0 0 0 0 0 0 0 0 0 0 0 0 0
0 0 0 0 0 0 0 0 0 0 0 0 0 0 0 0 0 0 0 0 0 0
0 0 0 0 0 0 0 0 0 0 0 0 0 0 0 0 0 0 0 0 0 0
0 0 0 0 0 0 0 0 0 0 0 0 0 0 0 0 0 0 0 0 0 0
0 0 0 0 0 0 0 0 0 0 0 0 0 0 0 0 0 0 0 0 0 0
0 0 0 0 0 0 0 0 0 0 0 0 0 0 0 0 0 0 0 0 0 0
0 0 0 0 0 0 0 0 0 0 0 0 0 0 0 0 0 0 0 0 0 0
0 0 0 0 0 0 0 0 0 0 0 0 0 0 0 0 0 0 0 0 0 0
0 0 0 0 0 0 0 0 0 0 0 0 0 0 -0 0 0 0 0 0 0 0
0 0 0 0 0 0 0 0 0 0 0 0 0 -0 -0 0 0 0 0 0 0 0
0 0 0 0 0 0 0 0 0 0 0 0 0 0 -0 -0 0 0 0 0 0 0
Wind_Speed_500mb
50 43 40 38 41 42 46 48 52 61 68 74 77 76 75 78 78 78 77 78 74 77
51 43 39 42 40 41 46 53 60 67 74 77 77 74 73 76 78 75 74 76 75 77
51 43 40 39 39 42 48 57 64 71 75 76 74 72 71 73 73 73 75 76 78 82
51 44 38 35 39 44 51 60 66 72 74 72 71 71 73 75 76 77 79 75 78 92
52 42 37 37 39 45 52 59 67 70 69 67 69 72 76 81 81 83 84 82 76 88
50 41 37 35 39 45 51 58 63 64 66 69 72 77 80 83 84 84 82 76 73 78
50 40 36 34 37 41 49 58 58 60 64 68 72 78 80 80 80 76 72 71 76 79
46 37 34 33 35 40 48 51 56 60 63 66 73 75 79 77 71 71 76 75 76 77
43 36 32 32 34 41 47 49 53 58 65 69 74 76 78 63 70 70 75 84 81 74
43 35 31 31 35 41 45 48 51 57 63 68 70 73 72 63 67 73 75 78 85 85
44 34 30 29 32 38 45 48 51 55 58 64 65 71 69 63 70 70 71 75 83 82
40 31 25 26 31 39 45 47 48 53 60 64 63 70 59 62 72 74 87 85 82 82
33 26 21 21 30 39 45 46 48 52 58 60 68 70 57 61 71 87 91 91 86 76
30 23 19 20 28 38 42 43 46 53 54 59 60 64 56 61 74 85 92 91 94 86
Wind_Direction_500mb
239 247 261 273 279 290 301 308 308 306 306 306 302 301 300 297 293 291 285 282 279 276
239 246 257 270 283 297 303 305 308 308 307 306 306 305 301 296 293 289 284 282 278 272
238 246 258 272 287 295 301 305 309 309 310 311 311 308 303 300 296 290 288 283 279 275
237 246 258 274 286 295 304 308 310 311 312 313 313 309 305 300 296 292 289 283 277 275
234 243 257 272 285 297 306 311 313 314 315 316 315 314 309 305 301 296 291 287 279 275
230 240 255 273 288 302 310 314 315 316 318 319 318 315 312 307 304 299 294 290 285 281
228 238 256 270 289 304 312 314 316 317 315 316 317 315 313 309 306 303 296 291 285 282
227 239 257 278 295 305 310 313 314 314 316 318 318 318 316 313 309 302 299 295 290 285
224 239 259 280 294 303 310 312 313 318 320 321 322 322 320 311 307 302 301 299 295 289
224 239 260 278 293 305 311 313 318 319 318 319 323 325 323 310 309 306 304 298 295 290
220 236 258 278 296 307 311 316 319 316 316 319 326 327 325 317 311 309 307 302 300 294
220 237 257 282 302 307 311 315 316 318 320 321 328 335 326 319 317 315 309 308 302 298
225 242 259 287 305 311 314 318 320 319 320 324 337 342 322 322 318 313 310 309 301 296
226 243 267 294 308 313 314 320 320 317 323 337 338 336 325 325 321 316 312 309 306 302
Wind_Speed_850mb
50 43 40 38 41 42 46 48 52 61 68 74 77 76 75 78 78 78 77 78 74 77
51 43 39 42 40 41 46 53 60 67 74 77 77 74 73 76 78 75 74 76 75 77
51 43 40 39 39 42 48 57 64 71 75 76 74 72 71 73 73 73 75 76 78 82
51 44 38 35 39 44 51 60 66 72 74 72 71 71 73 75 76 77 79 75 78 92
52 42 37 37 39 45 52 59 67 70 69 67 69 72 76 81 81 83 84 82 76 88
50 41 37 35 39 45 51 58 63 64 66 69 72 77 80 83 84 84 82 76 73 78
50 40 36 34 37 41 49 58 58 60 64 68 72 78 80 80 80 76 72 71 76 79
46 37 34 33 35 40 48 51 56 60 63 66 73 75 79 77 71 71 76 75 76 77
43 36 32 32 34 41 47 49 53 58 65 69 74 76 78 63 70 70 75 84 81 74
43 35 31 31 35 41 45 48 51 57 63 68 70 73 72 63 67 73 75 78 85 85
44 34 30 29 32 38 45 48 51 55 58 64 65 71 69 63 70 70 71 75 83 82
40 31 25 26 31 39 45 47 48 53 60 64 63 70 59 62 72 74 87 85 82 82
33 26 21 21 30 39 45 46 48 52 58 60 68 70 57 61 71 87 91 91 86 76
30 23 19 20 28 38 42 43 46 53 54 59 60 64 56 61 74 85 92 91 94 86
Wind_Direction_850mb
239 247 261 273 279 290 301 308 308 306 306 306 302 301 300 297 293 291 285 282 279 276
239 246 257 270 283 297 303 305 308 308 307 306 306 305 301 296 293 289 284 282 278 272
238 246 258 272 287 295 301 305 309 309 310 311 311 308 303 300 296 290 288 283 279 275
237 246 258 274 286 295 304 308 310 311 312 313 313 309 305 300 296 292 289 283 277 275
234 243 257 272 285 297 306 311 313 314 315 316 315 314 309 305 301 296 291 287 279 275
230 240 255 273 288 302 310 314 315 316 318 319 318 315 312 307 304 299 294 290 285 281
228 238 256 270 289 304 312 314 316 317 315 316 317 315 313 309 306 303 296 291 285 282
227 239 257 278 295 305 310 313 314 314 316 318 318 318 316 313 309 302 299 295 290 285
224 239 259 280 294 303 310 312 313 318 320 321 322 322 320 311 307 302 301 299 295 289
224 239 260 278 293 305 311 313 318 319 318 319 323 325 323 310 309 306 304 298 295 290
220 236 258 278 296 307 311 316 319 316 316 319 326 327 325 317 311 309 307 302 300 294
220 237 257 282 302 307 311 315 316 318 320 321 328 335 326 319 317 315 309 308 302 298
225 242 259 287 305 311 314 318 320 319 320 324 337 342 322 322 318 313 310 309 301 296
226 243 267 294 308 313 314 320 320 317 323 337 338 336 325 325 321 316 312 309 306 302